[TLELIST] Archives

 

[list_settings.list_name] Current TLEs

June 17th 2011 PST

HST 1 20580U 90037B 11167.05457208 .00000742 00000-0 43483-4 0 7819 2 20580 028.4720 023.8497 0003427 111.2522 248.8269 15.01392892959487 ISS (ZARYA) 1 25544U 98067A 11168.16658693 -.00010918 00000-0 -10549-3 0 5507 2 25544 051.6451 160.8516 0013961 294.0364 164.9781 15.64382534720904 CXO 1 25867U 99040B 11168.95833333 -.00000725 00000-0 00000+0 0 6186 2 25867 069.3826 031.6177 8618674 276.6960 355.1726 00.37802451 7775 ____________________________________________________________________ These 2-Line ...Continue Reading

[list_settings.list_name] Current TLEs

June 16th 2011 PST

HST 1 20580U 90037B 11164.06324016 .00000944 00000-0 58779-4 0 7804 2 20580 028.4710 043.3904 0003276 078.9007 281.1900 15.01390413959035 ISS (ZARYA) 1 25544U 98067A 11166.32006815 .00079535 00000-0 70033-3 0 5373 2 25544 051.6404 170.2103 0012163 235.9591 252.3222 15.67954468720612 CXO 1 25867U 99040B 11166.29166667 -.00000843 00000-0 00000+0 0 6170 2 25867 069.3661 031.7791 8616657 276.6701 352.2323 00.37805872 7767 ____________________________________________________________________ These 2-Line ...Continue Reading

[list_settings.list_name] Current TLEs

June 15th 2011 PST

HST 1 20580U 90037B 11164.06324016 .00000944 00000-0 58779-4 0 7804 2 20580 028.4710 043.3904 0003276 078.9007 281.1900 15.01390413959035 ISS (ZARYA) 1 25544U 98067A 11166.32006815 .00079535 00000-0 70033-3 0 5373 2 25544 051.6404 170.2103 0012163 235.9591 252.3222 15.67954468720612 CXO 1 25867U 99040B 11166.29166667 -.00000843 00000-0 00000+0 0 6170 2 25867 069.3661 031.7791 8616657 276.6701 352.2323 00.37805872 7767 ____________________________________________________________________ These 2-Line ...Continue Reading

[list_settings.list_name] Current TLEs

June 14th 2011 PST

HST 1 20580U 90037B 11164.06324016 .00000944 00000-0 58779-4 0 7804 2 20580 028.4710 043.3904 0003276 078.9007 281.1900 15.01390413959035 ISS (ZARYA) 1 25544U 98067A 11165.23295444 .00009856 00000-0 92254-4 0 5313 2 25544 051.6414 175.7391 0011950 231.8912 236.0417 15.67908861720449 CXO 1 25867U 99040B 11166.29166667 -.00000843 00000-0 00000+0 0 6170 2 25867 069.3661 031.7791 8616657 276.6701 352.2323 00.37805872 7767 ____________________________________________________________________ These 2-Line ...Continue Reading

[list_settings.list_name] Current TLEs

June 13th 2011 PST

HST 1 20580U 90037B 11164.06324016 .00000944 00000-0 58779-4 0 7804 2 20580 028.4710 043.3904 0003276 078.9007 281.1900 15.01390413959035 ISS (ZARYA) 1 25544U 98067A 11164.39899976 .00016365 00000-0 14962-3 0 5254 2 25544 051.6424 179.9868 0012220 230.4488 207.1170 15.67904392720315 CXO 1 25867U 99040B 11163.66666667 -.00000748 00000-0 00000+0 0 6166 2 25867 069.3470 031.9643 8612570 276.6371 354.9670 00.37807104 7759 ____________________________________________________________________ These 2-Line ...Continue Reading

[list_settings.list_name] Current TLEs

June 12th 2011 PST

HST 1 20580U 90037B 11161.13837474 .00001005 00000-0 63419-4 0 7790 2 20580 028.4701 062.4957 0003033 046.6795 313.4132 15.01386059958599 ISS (ZARYA) 1 25544U 98067A 11163.33451389 .00018083 00000-0 12501-3 0 5200 2 25544 051.6456 185.4217 0001267 336.7275 199.6508 15.74613146720146 CXO 1 25867U 99040B 11163.66666667 -.00000748 00000-0 00000+0 0 6166 2 25867 069.3470 031.9643 8612570 276.6371 354.9670 00.37807104 7759 ____________________________________________________________________ These 2-Line ...Continue Reading

[list_settings.list_name] Current TLEs

June 11th 2011 PST

HST 1 20580U 90037B 11161.13837474 .00001005 00000-0 63419-4 0 7790 2 20580 028.4701 062.4957 0003033 046.6795 313.4132 15.01386059958599 ISS (ZARYA) 1 25544U 98067A 11162.38436343 .00016413 00000-0 11406-3 0 5148 2 25544 051.6472 190.3118 0000992 321.4933 225.2803 15.74575865719995 CXO 1 25867U 99040B 11163.66666667 -.00000748 00000-0 00000+0 0 6166 2 25867 069.3470 031.9643 8612570 276.6371 354.9670 00.37807104 7759 ____________________________________________________________________ These 2-Line ...Continue Reading

[list_settings.list_name] Current TLEs

June 10th 2011 PST

HST 1 20580U 90037B 11161.13837474 .00001005 00000-0 63419-4 0 7790 2 20580 028.4701 062.4957 0003033 046.6795 313.4132 15.01386059958599 ISS (ZARYA) 1 25544U 98067A 11161.36954861 .00023515 00000-0 16178-3 0 5079 2 25544 051.6445 195.5196 0001019 326.4356 224.0639 15.74527212719833 CXO 1 25867U 99040B 11161.04166667 -.00000443 00000-0 00000+0 0 6152 2 25867 069.3257 032.1265 8606870 276.6314 357.6378 00.37805092 7746 ____________________________________________________________________ These 2-Line ...Continue Reading

[list_settings.list_name] Current TLEs

June 9th 2011 PST

HST 1 20580U 90037B 11159.14414120 .00000933 00000-0 57954-4 0 7782 2 20580 028.4698 075.5244 0002924 024.1008 335.9773 15.01382238958296 ISS (ZARYA) 1 25544U 98067A 11160.44742115 .00024353 00000-0 16359-3 0 5021 2 25544 051.6430 200.2631 0000857 315.4074 044.7383 15.74480715123859 CXO 1 25867U 99040B 11161.04166667 -.00000443 00000-0 00000+0 0 6152 2 25867 069.3257 032.1265 8606870 276.6314 357.6378 00.37805092 7746 ____________________________________________________________________ These 2-Line ...Continue Reading

[list_settings.list_name] Current TLEs

June 8th 2011 PST

HST 1 20580U 90037B 11159.14414120 .00000933 00000-0 57954-4 0 7782 2 20580 028.4698 075.5244 0002924 024.1008 335.9773 15.01382238958296 ISS (ZARYA) 1 25544U 98067A 11159.40159722 .00024445 00000-0 16865-3 0 4956 2 25544 051.6457 205.6313 0001156 306.0667 242.3140 15.74434988719524 CXO 1 25867U 99040B 11161.29166667 -.00000472 00000-0 00000+0 0 6140 2 25867 069.3275 032.1088 8607584 276.6368 031.6891 00.37805914 7743 ____________________________________________________________________ These 2-Line ...Continue Reading
  • This mailing list is a public mailing list - anyone may join or leave, at any time.
  • This mailing list is announce-only.

International Space Station (ISS) / Hubble Space Telescope (HST) / Chandra X-Ray Observatory Orbital Data via EMAIL

Privacy Policy:

Private list